This is the latest recevied weather packets stored in our database for station/object S59MA-6. If no packets are shown the sender has not sent any weather packets the latest 10 day(s).
| Time | Temp. | Humidity | Pressure | Rain* | Wind** | Luminosity | Snow |
|---|---|---|---|---|---|---|---|
| 1777732856 | 23.33° C | 38% | 1009 hPa | 0.51 mm | - | - | - |
| 1777731953 | 23.33° C | 38% | 1009.2 hPa | 0.51 mm | - | - | - |
| 1777731658 | 23.33° C | 39% | 1009.2 hPa | 0.51 mm | - | - | - |
| 1777731357 | 23.33° C | 38% | 1009.2 hPa | 0.51 mm | - | - | - |
| 1777731055 | 23.33° C | 39% | 1009.3 hPa | 0 mm | - | - | - |
| 1777730755 | 23.33° C | 39% | 1009.3 hPa | 0 mm | - | - | - |
| 1777730455 | 23.33° C | 39% | 1009.5 hPa | 0 mm | - | - | - |
| 1777730154 | 23.33° C | 38% | 1009.5 hPa | 0.51 mm | - | - | - |
| 1777729650 | 23.33° C | 39% | 1009.6 hPa | 1.52 mm | - | - | - |
| 1777729555 | 23.33° C | 39% | 1009.6 hPa | 1.52 mm | - | - | - |
| 1777729255 | 23.33° C | 39% | 1009.6 hPa | 1.52 mm | - | - | - |
| 1777728955 | 22.78° C | 37% | 1009.8 hPa | 3.56 mm | - | - | - |
| 1777728655 | 23.33° C | 39% | 1009.8 hPa | 3.56 mm | - | - | - |
| 1777728355 | 23.33° C | 39% | 1009.8 hPa | 135.89 mm | - | - | - |
| 1777728057 | 23.33° C | 39% | 1009.9 hPa | 253.75 mm | - | - | - |
| 1777727455 | 23.33° C | 40% | 1009.8 hPa | 253.75 mm | - | - | - |
| 1777726856 | 23.33° C | 39% | 1010.1 hPa | 253.75 mm | - | - | - |
| 1777725955 | 23.33° C | 40% | 1010.1 hPa | 253.75 mm | - | - | - |
| 1777725655 | 23.33° C | 39% | 1010.2 hPa | 253.75 mm | - | - | - |
| 1777725355 | 23.33° C | 40% | 1010.2 hPa | 253.75 mm | - | - | - |
| 1777724154 | 22.78° C | 41% | 1007.8 hPa | 253.75 mm | - | - | - |
| 1777723855 | 22.78° C | 41% | 1009.1 hPa | 253.75 mm | - | - | - |
| 1777723555 | 22.78° C | 40% | 1009 hPa | 253.75 mm | - | - | - |
| 1777723256 | 22.78° C | 40% | 1010.4 hPa | 132.08 mm | - | - | - |
| 1777722957 | 22.78° C | 41% | 1010.6 hPa | 132.08 mm | - | - | - |
* Rain latest hour (hover to see other rain measurements)
** Current wind speed in m/s (hover to see current wind gust speed)